This is the latest recevied weather packets stored in our database for station/object PA3CPS. If no packets are shown the sender has not sent any weather packets the latest 10 day(s).
| Time | Temp. | Humidity | Pressure | Rain* | Wind** | Luminosity | Snow |
|---|---|---|---|---|---|---|---|
| 1777998062 | 11.67° C | 83% | 1009.5 hPa | 0 mm | - | 93 W/m² | - |
| 1777997762 | 11.67° C | 83% | 1009.4 hPa | 0 mm | - | 104 W/m² | - |
| 1777997462 | 11.67° C | 83% | 1009.5 hPa | 0 mm | - | 113 W/m² | - |
| 1777997162 | 11.67° C | 83% | 1009.5 hPa | 0 mm | - | 104 W/m² | - |
| 1777996863 | 11.67° C | 83% | 1009.6 hPa | 0 mm | - | 100 W/m² | - |
| 1777996563 | 11.67° C | 83% | 1009.6 hPa | 0 mm | - | 121 W/m² | - |
| 1777996263 | 11.67° C | 82% | 1009.5 hPa | 0 mm | - | 128 W/m² | - |
| 1777995963 | 12.22° C | 82% | 1009.7 hPa | 0 mm | - | 135 W/m² | - |
| 1777995663 | 12.22° C | 82% | 1009.7 hPa | 0 mm | - | 125 W/m² | - |
| 1777995360 | 12.22° C | 82% | 1009.6 hPa | 0 mm | - | 128 W/m² | - |
| 1777995059 | 12.22° C | 82% | 1009.6 hPa | 0 mm | - | 149 W/m² | - |
| 1777994757 | 12.22° C | 82% | 1009.6 hPa | 0 mm | - | 130 W/m² | - |
| 1777994456 | 12.22° C | 81% | 1009.7 hPa | 0 mm | - | 102 W/m² | - |
| 1777994153 | 12.22° C | 81% | 1009.8 hPa | 0 mm | - | 123 W/m² | - |
| 1777993852 | 12.22° C | 82% | 1009.7 hPa | 0 mm | - | 148 W/m² | - |
| 1777993550 | 12.22° C | 81% | 1009.7 hPa | 0 mm | - | 132 W/m² | - |
| 1777993249 | 12.22° C | 82% | 1009.6 hPa | 0 mm | - | 134 W/m² | - |
| 1777992946 | 12.22° C | 81% | 1009.6 hPa | 0 mm | - | 121 W/m² | - |
| 1777992643 | 12.22° C | 82% | 1009.6 hPa | 0 mm | - | 146 W/m² | - |
| 1777992342 | 12.22° C | 81% | 1009.7 hPa | 0 mm | - | 176 W/m² | - |
| 1777991737 | 12.22° C | 81% | 1009.6 hPa | 0 mm | - | 176 W/m² | - |
| 1777991432 | 12.22° C | 81% | 1009.8 hPa | 0 mm | - | 181 W/m² | - |
| 1777991130 | 12.22° C | 81% | 1009.8 hPa | 0 mm | - | 213 W/m² | - |
| 1777990829 | 12.22° C | 81% | 1009.9 hPa | 0 mm | - | 195 W/m² | - |
| 1777990528 | 12.22° C | 81% | 1009.8 hPa | 0 mm | - | 221 W/m² | - |
* Rain latest hour (hover to see other rain measurements)
** Current wind speed in m/s (hover to see current wind gust speed)